SCP
0 0 0 0 0 0 0 0 0 0 0 0 0 0 0 0 0 0 1 2 2 2 2 2 1 1 1 1 1 1 1 1 1 1 0 1 1 1 1 2 1 1 1 0
0 0 0 0 0 0 0 0 0 0 0 0 0 0 0 0 0 0 0 1 1 1 2 2 2 1 1 1 1 1 1 1 1 1 0 0 1 1 1 2 1 1 1 0
0 0 0 0 0 0 0 0 0 0 0 0 0 1 1 0 0 0 0 0 0 0 1 1 1 1 1 1 1 0 1 1 1 0 0 0 1 1 1 1 1 1 0 0
0 0 0 0 0 0 0 0 0 0 0 0 0 1 1 1 1 0 0 0 0 0 0 0 1 1 1 1 1 1 1 1 1 0 0 0 1 1 1 1 1 1 0 0
0 0 0 0 0 0 0 0 0 0 0 0 0 0 1 1 1 0 0 0 0 0 0 0 0 0 1 1 1 1 1 1 1 0 0 1 1 1 1 1 1 1 0 0
0 0 0 0 0 0 0 0 0 0 0 0 0 0 0 1 0 0 0 0 0 0 0 0 0 0 0 0 1 1 1 0 0 0 0 1 1 1 1 1 1 1 0 0
0 0 0 0 0 0 0 0 0 1 1 0 0 0 0 0 0 0 0 0 0 0 0 0 0 0 0 0 0 0 0 0 0 0 0 0 1 1 0 1 1 1 0 0
0 0 0 0 0 0 0 0 0 0 0 0 0 0 0 0 0 0 0 0 0 0 0 0 0 0 0 0 0 0 0 0 0 0 0 0 0 0 0 0 1 1 0 0
0 0 0 0 0 0 0 0 0 0 0 0 0 0 0 0 0 1 1 0 0 0 0 0 0 0 0 0 0 0 0 0 0 0 0 0 0 0 0 0 1 1 0 0
0 0 0 0 0 0 0 0 0 0 0 0 0 0 0 0 0 1 1 0 0 0 0 0 0 0 0 0 0 0 0 0 0 0 0 0 0 0 0 0 1 1 1 0
0 0 0 0 0 0 0 0 0 0 0 0 0 0 0 0 0 0 0 0 0 0 0 0 0 0 0 0 0 0 0 0 0 0 0 0 0 0 0 0 0 1 1 0
0 0 0 0 0 0 0 0 0 0 0 0 0 0 0 0 0 0 0 0 0 0 0 0 0 0 0 0 0 0 0 0 0 0 0 0 0 0 0 0 0 0 0 0
0 0 0 0 0 0 0 0 0 0 0 0 0 0 0 0 0 0 0 0 0 0 0 0 0 0 0 0 0 0 0 0 0 0 0 0 0 0 0 0 0 0 0 0
0 0 0 0 0 0 0 0 0 0 0 0 0 0 0 0 0 0 0 0 0 0 0 0 0 0 0 0 0 0 0 0 0 0 0 0 0 0 0 0 0 0 0 0
0 0 0 0 0 0 0 0 0 0 0 0 0 0 0 0 0 0 0 0 0 0 0 0 0 0 0 0 0 0 0 0 0 0 0 0 0 0 0 0 0 0 0 0
0 0 0 0 0 0 0 0 0 0 0 0 0 0 0 0 0 0 0 0 0 0 0 0 0 0 0 0 0 0 0 0 0 0 0 0 0 0 0 0 0 0 0 0
0 0 0 0 0 0 0 0 0 0 0 0 0 0 0 0 0 0 0 0 0 0 0 0 0 0 0 0 0 0 0 0 0 0 0 0 0 0 0 0 0 0 0 0
0 0 0 0 0 0 0 0 0 0 0 0 0 0 0 0 0 0 0 0 0 0 0 0 0 0 0 0 0 0 0 0 0 0 0 0 0 0 0 0 0 0 0 0
0 0 0 0 0 0 0 0 0 0 0 0 0 0 0 0 0 0 0 0 0 0 0 0 0 0 0 0 0 0 0 0 0 0 0 0 0 0 0 0 0 0 0 0
0 0 0 0 0 0 0 0 0 0 0 0 0 0 0 0 0 0 0 0 0 0 0 0 0 0 0 0 0 0 0 0 0 0 0 0 0 0 0 0 0 0 0 0
0 0 0 0 0 0 0 0 0 0 0 0 0 0 0 0 0 0 0 0 0 0 0 0 0 0 0 0 0 0 0 0 0 0 0 0 0 0 0 0 0 0 0 0
0 0 0 0 0 0 0 0 0 0 0 0 0 0 0 0 0 0 0 0 0 0 0 0 0 0 0 0 0 0 0 0 0 0 0 0 0 0 0 0 0 0 0 0
0 0 0 0 0 0 0 0 0 0 0 0 0 0 0 0 0 0 0 0 0 0 0 0 0 0 0 0 0 0 0 0 0 0 0 0 0 0 0 0 0 0 0 0
0 0 0 0 0 0 0 0 0 0 0 0 0 0 0 0 0 0 0 0 0 0 0 0 0 0 0 0 0 0 0 0 0 0 0 0 0 0 0 0 0 0 0 0
0 0 0 0 0 0 0 0 0 0 0 0 0 0 0 0 0 0 0 0 0 0 0 0 0 0 0 0 0 0 0 0 0 0 0 0 0 0 0 0 0 0 0 0
0 0 0 0 0 0 0 0 0 0 0 0 0 0 0 0 0 0 0 0 0 0 0 0 0 0 0 0 0 0 0 0 0 0 0 0 0 0 0 0 0 0 0 0
Wind_Speed
2 1 1 1 1 2 3 4 6 4 1 5 9 11 9 5 5 5 5 4 4 4 3 2 2 2 2 2 2 2 1 0 1 1 1 1 1 1 0 1 1 2 1 1
2 1 1 1 1 2 3 5 5 3 2 5 8 11 8 5 5 5 5 5 5 4 3 3 3 2 2 2 2 2 1 1 1 1 1 1 1 1 1 1 2 2 2 1
1 1 0 1 1 2 4 5 5 5 5 4 6 8 5 3 3 3 4 4 4 4 4 4 3 2 2 2 2 2 2 2 1 1 1 1 1 2 1 1 1 1 1 1
1 0 1 1 2 3 4 2 5 5 5 3 2 7 5 3 3 3 4 4 4 4 3 4 4 3 3 3 3 3 2 2 1 2 2 3 3 2 1 1 1 1 2 2
1 0 1 2 2 3 3 3 4 4 5 5 4 6 6 2 4 3 4 4 4 4 3 4 5 4 3 3 3 2 2 2 2 2 3 3 3 2 1 2 2 2 2 2
0 0 1 2 2 2 2 2 2 3 4 5 3 6 6 2 4 4 4 4 4 4 4 4 4 4 3 3 3 2 2 2 2 2 3 4 4 4 3 3 3 2 2 2
1 2 1 1 1 2 1 2 3 3 3 4 2 6 7 2 3 4 5 5 4 4 4 4 4 4 4 4 3 3 3 2 2 2 3 3 3 3 4 4 3 3 2 2
3 3 1 0 2 2 2 2 3 5 5 4 3 8 4 1 3 4 4 5 5 5 4 5 5 4 4 4 4 3 3 3 3 3 3 3 3 2 3 4 4 3 3 2
3 3 2 1 2 2 2 2 2 3 3 6 7 6 5 2 4 4 4 5 6 6 6 5 5 4 4 4 4 4 4 3 3 3 3 3 3 3 4 4 4 3 3 3
2 5 1 0 2 1 2 1 2 3 4 7 7 6 4 3 4 5 5 6 7 6 6 6 5 5 5 4 4 4 4 3 3 3 3 2 3 3 4 3 4 3 3 3
2 4 2 2 3 3 2 2 3 3 4 6 7 5 1 2 4 5 6 6 7 7 7 6 6 5 5 4 3 3 3 3 3 3 2 3 2 2 3 3 3 3 3 3
1 3 5 3 1 2 3 3 4 4 4 5 7 6 3 2 4 6 7 7 7 8 7 7 6 5 4 4 3 3 3 3 3 2 2 2 1 2 2 2 2 3 3 3
3 3 4 3 3 2 3 3 3 3 3 6 8 7 3 4 6 7 8 9 8 7 7 6 6 5 4 4 3 3 3 3 3 2 2 2 2 1 2 2 3 2 3 3
2 4 7 9 5 1 4 5 5 5 6 8 11 13 9 8 9 10 10 10 9 7 7 7 6 5 5 4 3 3 4 3 3 2 2 2 2 2 2 2 3 3 3 3
2 6 7 10 9 6 8 8 8 10 10 11 12 12 13 10 10 10 10 9 9 8 8 7 7 6 5 4 4 4 4 4 3 2 2 2 3 3 3 3 3 3 3 3
3 5 4 7 6 6 9 11 11 12 11 13 15 16 10 9 8 9 10 9 9 10 9 8 7 7 5 5 4 4 4 4 3 2 3 3 2 3 3 3 3 3 3 3
4 4 4 6 3 5 9 8 9 7 7 8 10 9 8 9 10 10 10 10 10 10 9 8 7 6 5 5 5 4 4 4 3 3 3 3 2 2 3 3 3 3 3 3
4 3 3 5 3 8 2 2 4 6 6 7 7 8 8 9 10 9 7 9 10 10 9 7 6 6 5 5 4 4 3 3 3 3 3 3 3 3 3 3 3 3 3 3
4 4 3 3 5 9 3 2 2 4 6 4 6 9 10 10 9 5 5 7 8 8 7 6 5 5 5 5 4 4 3 3 3 4 4 4 3 3 3 3 4 3 3 3
1 3 4 4 6 7 2 1 0 3 5 0 3 7 8 7 6 5 7 8 8 8 6 6 5 5 4 5 4 3 3 4 4 5 5 4 3 3 4 4 4 3 3 4
2 3 5 7 7 8 2 1 2 4 3 2 3 5 5 5 5 7 8 8 7 7 7 6 5 4 5 5 4 3 4 4 5 5 4 4 3 4 4 3 3 3 3 3
5 5 6 5 7 7 2 3 4 3 3 3 4 4 5 6 6 6 7 7 7 7 6 6 5 5 5 5 4 4 5 5 5 4 4 4 4 3 3 3 3 2 3 3
6 5 4 7 6 3 2 4 3 3 4 4 4 5 4 5 6 6 6 6 6 6 6 5 5 5 5 5 4 5 6 5 5 4 4 4 4 3 3 3 3 2 2 2
4 2 5 7 8 6 5 4 4 4 5 5 5 5 4 5 5 6 6 6 5 5 5 5 5 5 6 6 5 5 6 5 4 4 4 3 3 3 3 2 2 2 2 2
4 4 5 8 7 6 4 5 5 5 5 5 5 4 4 4 5 6 6 6 5 5 5 5 5 5 6 6 6 6 6 5 5 4 4 3 3 3 3 2 2 2 2 3
4 6 6 6 4 5 6 5 5 5 6 5 5 5 4 4 5 6 6 5 5 5 5 5 5 6 6 6 6 6 6 5 5 4 4 3 3 3 2 2 2 2 3 4
Wind_Direction
20 93 49 353 290 292 252 250 266 274 289 273 259 271 275 252 251 261 259 262 268 279 287 302 315 336 347 354 348 338 309 249 233 205 204 202 235 232 223 175 142 142 134 133
166 102 5 288 231 261 254 262 272 279 288 275 277 277 266 242 238 257 268 261 262 281 296 303 311 324 330 338 332 315 294 268 249 242 238 218 236 221 202 175 146 148 142 152
167 56 312 245 256 278 267 262 280 296 303 245 282 265 221 207 225 272 279 280 283 280 284 287 288 296 299 305 304 291 275 265 253 245 216 188 224 211 182 170 157 152 155 150
149 183 224 273 269 270 270 276 279 279 279 273 294 283 242 230 257 283 293 291 290 288 286 287 284 279 278 278 282 277 265 260 254 237 224 210 221 220 215 198 185 175 176 175
164 182 268 265 291 258 279 310 277 257 250 265 223 256 262 214 269 292 306 297 295 293 285 287 287 281 280 273 268 262 263 258 246 230 222 213 214 217 218 194 185 185 193 190
71 132 290 295 301 256 289 272 217 207 231 248 217 246 267 213 254 281 294 306 302 294 291 291 293 291 292 289 278 267 265 267 258 238 227 215 209 205 216 212 200 201 208 192
270 166 121 308 257 188 286 286 278 252 238 251 155 251 261 258 281 285 295 306 308 296 289 289 292 291 288 284 279 271 263 267 264 239 233 219 211 215 227 227 212 211 215 207
283 250 147 345 289 262 241 266 276 282 282 290 228 249 268 275 301 308 312 311 311 305 296 290 287 283 279 279 271 263 255 259 261 248 236 229 219 226 242 237 225 215 217 217
272 269 85 13 336 277 217 215 326 280 280 273 256 268 280 270 293 307 315 318 309 308 304 296 290 291 288 279 272 265 257 251 252 254 245 236 231 232 241 228 224 220 220 212
275 273 256 316 213 78 322 168 192 229 270 275 271 262 275 299 298 311 313 310 309 311 309 303 296 296 291 281 275 270 263 259 269 269 265 259 251 244 241 233 224 220 224 218
240 256 264 223 224 229 175 188 234 241 261 272 282 278 32 306 320 309 312 316 315 309 304 298 296 293 292 291 285 285 289 290 282 276 267 258 247 239 240 240 237 225 223 220
196 257 267 255 69 339 244 232 211 242 242 243 271 281 67 353 340 324 318 319 316 310 307 304 301 297 297 298 301 298 294 286 277 267 261 263 258 245 246 249 251 241 227 223
170 219 275 242 184 182 233 232 239 260 257 240 251 269 60 349 337 331 317 315 313 309 309 308 306 303 298 295 292 289 290 291 288 269 254 263 271 274 269 266 260 249 239 231
189 230 243 267 302 255 244 235 219 220 243 253 250 273 296 315 321 322 321 318 311 306 305 303 303 304 304 301 299 298 299 298 288 270 266 269 276 275 270 265 261 250 241 235
208 251 251 268 277 267 258 256 233 227 246 256 271 276 288 308 314 315 317 316 313 310 307 303 304 306 307 305 305 305 304 303 292 272 270 276 276 271 267 263 258 251 243 240
228 256 270 273 260 260 265 261 246 245 252 258 272 279 297 314 315 315 317 317 314 312 308 306 307 305 305 305 304 301 300 302 294 278 276 280 277 276 270 261 254 249 243 239
214 225 256 273 288 278 266 246 226 232 237 240 255 276 316 316 318 318 316 316 313 311 312 311 307 302 304 303 300 297 300 305 302 294 295 294 283 279 277 274 263 255 255 242
206 211 241 281 288 257 285 95 206 234 253 240 260 285 303 308 310 305 310 315 314 314 315 315 313 313 315 308 305 306 309 309 306 303 304 303 291 286 287 282 274 264 258 248
224 211 233 252 268 274 270 183 201 237 276 238 258 289 307 318 305 302 332 326 319 318 317 315 314 315 319 317 311 313 320 322 318 314 311 309 295 287 285 280 276 264 255 250
111 221 234 236 256 263 315 85 217 232 265 209 283 299 313 324 314 331 348 333 326 324 325 326 326 327 327 325 322 316 322 323 319 314 310 309 302 286 280 280 279 267 255 254
179 204 226 238 249 265 329 130 195 248 307 347 296 295 298 293 296 317 325 329 329 328 330 332 333 334 331 329 328 326 327 322 319 317 315 313 308 298 290 287 286 270 256 252
200 202 213 219 236 259 116 155 221 288 329 298 295 295 290 288 299 310 317 322 328 330 334 336 336 334 336 339 337 334 328 324 325 324 322 322 318 312 308 300 294 278 257 249
219 221 224 217 241 312 192 232 272 307 292 295 298 300 293 292 299 310 313 317 323 325 328 331 331 329 336 340 334 326 323 325 324 326 325 325 324 320 315 302 294 290 278 261
226 235 241 254 259 267 259 264 282 280 282 295 296 292 285 285 295 304 310 316 320 322 324 327 330 331 332 333 330 322 323 324 320 322 324 323 317 318 320 310 299 293 285 272
252 205 237 255 273 290 261 272 288 292 293 297 298 292 285 287 296 301 305 311 315 318 323 325 324 321 321 327 326 326 329 327 323 322 323 320 314 312 309 308 308 298 295 298
215 211 223 257 272 271 287 297 298 292 290 292 294 298 302 295 294 302 304 307 311 314 318 321 320 319 321 326 327 330 332 329 324 322 322 319 316 310 306 304 304 305 298 313